Location: Burjasot
(39.5167°N, 0.4167°W)
Time: 18:59:21
(UTC+01:00)

ISS - Visible Passes

Search period start: 15 December 2017 00:00
Search period end: 25 December 2017 00:00
Orbit: 402 x 407 km, 51.6° (Epoch: 15 December)

Date Brightness Start Highest point End Pass type
(mag) Time Alt. Az. Time Alt. Az. Time Alt. Az.
15 Dec -2.1 19:31:57 10° WNW 19:34:56 32° SW 19:36:11 24° S visible
16 Dec -3.5 18:39:29 10° WNW 18:42:45 67° SW 18:46:00 10° SE visible
17 Dec -0.6 19:24:56 10° W 19:26:35 13° SW 19:28:14 10° SSW visible
18 Dec -1.3 18:31:43 10° WNW 18:34:30 25° SW 18:37:16 10° SSE visible
20 Dec 0.2 18:25:27 10° WSW 18:26:03 10° SW 18:26:39 10° SW visible
